DW9063 Weather Reports


Display with metric or nautical units.
time (UTC)temp
F
wind
direction
speed
MPH
gust
MPH
rain 1hr
in
rain 24hr
in
rain mn
in
humidity
%
barometer
mb
20260507113005 50 341 1.0 3.0 0.00 0.00 0.00 73 1011.3
20260507110025 51 317 1.0 3.0 0.00 0.00 0.00 69 1011.0
20260507104607 52 255 0.0 1.0 0.00 0.00 0.00 67 1010.7
20260507103010 52 255 0.0 2.0 0.00 0.00 0.00 65 1010.6
20260507101542 53 254 1.0 2.0 0.00 0.00 0.00 64 1010.5
20260507101503 53 254 1.0 2.0 0.00 0.00 0.00 64 1010.5
20260507100009 53 254 0.0 0.0 0.00 0.00 0.00 63 1010.4
20260507094541 54 254 0.0 1.0 0.00 0.00 0.00 61 1010.1
20260507093018 54 254 0.0 1.0 0.00 0.00 0.00 61 1010.2
20260507091515 55 254 0.0 2.0 0.00 0.00 0.00 62 1009.9
20260507090008 56 254 0.0 2.0 0.00 0.00 0.00 60 1009.8
20260507084509 56 7 0.0 2.0 0.00 0.00 0.00 60 1009.7
20260507083005 56 7 0.0 0.0 0.00 0.00 0.00 61 1009.4
20260507081504 56 7 0.0 3.0 0.00 0.00 0.00 61 1009.3
20260507080100 56 204 0.0 3.0 0.00 0.00 0.00 61 1009.1
20260507080001 56 204 0.0 3.0 0.00 0.00 0.00 61 1009.1
20260507074613 57 264 0.0 1.0 0.00 0.00 0.00 58 1009.0
20260507073101 58 329 0.0 2.0 0.00 0.00 0.00 60 1008.8
20260507071552 59 48 0.0 2.0 0.00 0.00 0.00 62 1008.6
20260507070050 59 48 0.0 2.0 0.00 0.00 0.00 63 1008.5
20260507064547 61 49 0.0 2.0 0.00 0.00 0.00 61 1008.4
20260507063056 60 269 0.0 3.0 0.00 0.00 0.00 62 1008.4
20260507061606 61 78 0.0 2.0 0.00 0.00 0.00 60 1008.2
20260507054548 63 245 0.0 2.0 0.00 0.00 0.00 51 1008.2
20260507053041 65 276 0.0 2.0 0.00 0.00 0.00 45 1008.1
20260507051523 66 289 0.0 6.0 0.00 0.00 0.00 43 1008.1
20260507050033 68 257 0.0 6.0 0.00 0.00 0.00 42 1008.1
20260507044532 69 140 2.0 14.0 0.00 0.00 0.00 41 1008.1
20260507043021 69 175 3.0 9.0 0.00 0.00 0.00 41 1008.1
20260507041528 70 238 4.0 10.0 0.00 0.00 0.00 39 1008.0
20260507040019 70 221 7.0 13.0 0.00 0.00 0.00 38 1007.8
20260507034518 71 217 3.0 11.0 0.00 0.00 0.00 42 1007.8
20260507033018 71 58 2.0 10.0 0.00 0.00 0.00 43 1007.6
20260507031524 71 226 5.0 10.0 0.00 0.00 0.00 43 1007.8
20260507030016 72 167 1.0 13.0 0.00 0.00 0.00 45 1007.9
20260507024515 72 209 5.0 12.0 0.00 0.00 0.00 45 1007.9
20260507023013 73 189 3.0 6.0 0.00 0.00 0.00 42 1008.0
20260507021512 73 167 3.0 8.0 0.00 0.00 0.00 41 1008.1
20260507020011 74 232 4.0 9.0 0.00 0.00 0.00 39 1008.2
20260507014515 74 172 3.0 9.0 0.00 0.00 0.00 39 1008.3
20260507013009 74 161 5.0 11.0 0.00 0.00 0.00 38 1008.5
20260507011509 74 187 5.0 12.0 0.00 0.00 0.00 38 1008.6
20260507010004 74 226 5.0 14.0 0.00 0.00 0.00 37 1008.6
20260507004508 75 227 6.0 13.0 0.00 0.00 0.00 37 1008.7
20260507003002 75 241 7.0 15.0 0.00 0.00 0.00 37 1008.7
20260507001534 76 191 5.0 11.0 0.00 0.00 0.00 36 1008.8
20260507000059 76 224 4.0 11.0 0.00 0.00 0.00 35 1008.7
20260506234538 76 233 7.0 14.0 0.00 0.00 0.00 36 1008.9
20260506233036 77 250 4.0 12.0 0.00 0.00 0.00 36 1009.0
20260506231533 77 248 4.0 18.0 0.00 0.00 0.00 39 1009.1
20260506230018 76 213 7.0 12.0 0.00 0.00 0.00 39 1009.2
20260506224520 77 223 6.0 14.0 0.00 0.00 0.00 41 1009.5
20260506223020 77 225 8.0 13.0 0.00 0.00 0.00 40 1009.7
20260506221514 78 188 6.0 12.0 0.00 0.00 0.00 39 1009.8
20260506220012 77 201 3.0 14.0 0.00 0.00 0.00 41 1009.9
20260506214510 78 156 4.0 13.0 0.00 0.00 0.00 40 1010.1
20260506213008 78 187 6.0 15.0 0.00 0.00 0.00 39 1010.2
20260506211513 76 302 2.0 12.0 0.00 0.00 0.00 42 1010.4
20260506210007 76 245 5.0 13.0 0.00 0.00 0.00 40 1010.6
20260506204505 76 245 4.0 11.0 0.00 0.00 0.00 40 1010.7
20260506203001 77 286 3.0 14.0 0.00 0.00 0.00 42 1010.9
20260506201609 76 278 1.0 7.0 0.00 0.00 0.00 40 1010.9
20260506200100 76 164 1.0 8.0 0.00 0.00 0.00 38 1011.2
20260506194609 72 77 1.0 4.0 0.00 0.00 0.00 42 1011.3
20260506193053 71 353 1.0 4.0 0.00 0.00 0.00 41 1011.6
20260506191545 70 100 1.0 4.0 0.00 0.00 0.00 40 1012.0
20260506190011 68 81 1.0 4.0 0.00 0.00 0.00 41 1012.2
20260506184513 68 333 2.0 6.0 0.00 0.00 0.00 41 1012.3
20260506183006 67 71 1.0 5.0 0.00 0.00 0.00 40 1012.3
20260506181508 67 303 2.0 4.0 0.00 0.00 0.00 40 1012.2
20260506180008 67 61 1.0 5.0 0.00 0.00 0.00 41 1012.4
20260506174508 66 16 2.0 5.0 0.00 0.00 0.00 41 1012.5
20260506173002 66 158 1.0 5.0 0.00 0.00 0.00 39 1012.7
20260506171558 64 92 2.0 5.0 0.00 0.00 0.00 42 1012.8
20260506170112 63 11 2.0 7.0 0.00 0.00 0.00 44 1013.0
20260506164554 62 56 5.0 9.0 0.00 0.00 0.00 44 1013.0
20260506163101 61 56 3.0 10.0 0.00 0.00 0.00 46 1013.2
20260506161546 60 125 5.0 9.0 0.00 0.00 0.00 46 1013.2
20260506160043 59 61 4.0 9.0 0.00 0.00 0.00 47 1013.3
20260506154541 58 75 4.0 9.0 0.00 0.00 0.00 50 1013.3
20260506153035 56 51 3.0 9.0 0.00 0.00 0.00 53 1013.4
20260506151533 55 46 5.0 8.0 0.00 0.00 0.00 54 1013.4
20260506150028 54 8 5.0 9.0 0.00 0.00 0.00 55 1013.4
20260506144525 53 60 5.0 10.0 0.00 0.00 0.00 55 1013.3
20260506143031 53 69 5.0 9.0 0.00 0.00 0.00 55 1013.3
20260506141523 53 65 5.0 10.0 0.00 0.00 0.00 58 1013.4
20260506140023 52 70 4.0 10.0 0.00 0.00 0.00 60 1013.4
20260506134521 51 66 4.0 9.0 0.00 0.00 0.00 64 1013.4
20260506133021 51 86 5.0 8.0 0.00 0.00 0.00 62 1013.3
20260506131517 50 87 4.0 8.0 0.00 0.00 0.00 61 1013.2
20260506130016 50 122 5.0 8.0 0.00 0.00 0.00 60 1013.0
20260506124514 49 92 2.0 8.0 0.00 0.00 0.00 62 1013.0
20260506123013 48 67 3.0 6.0 0.00 0.00 0.00 66 1012.9
20260506121510 48 62 4.0 8.0 0.00 0.00 0.00 68 1012.8
20260506120005 49 46 4.0 8.0 0.00 0.00 0.00 65 1012.6
20260506114506 51 51 5.0 8.0 0.00 0.00 0.00 60 1012.6